Time,TemperatureF,DewpointF,PressureIn,WindDirection,WindDirectionDegrees,WindSpeedMPH,WindSpeedGustMPH,Humidity,HourlyPrecipIn,Conditions,Clouds,dailyrainin,SoftwareType,DateUTC
2013-02-07 00:04:00,33.9,33.0,30.07,NE,41,0.0,0.0,96,0.00,,,0.00,weatherlink.com 1.10,2013-02-07 08:04:00,
2013-02-07 00:19:00,33.9,33.0,30.07,NE,41,0.0,0.0,96,0.00,,,0.00,weatherlink.com 1.10,2013-02-07 08:19:00,
2013-02-07 00:34:00,34.1,33.0,30.07,NE,41,0.0,0.0,96,0.00,,,0.00,weatherlink.com 1.10,2013-02-07 08:34:00,
2013-02-07 00:49:00,34.0,33.0,30.06,NE,41,0.0,0.0,96,0.00,,,0.00,weatherlink.com 1.10,2013-02-07 08:49:00,
2013-02-07 01:04:00,34.0,33.0,30.05,NE,41,0.0,0.0,96,0.00,,,0.00,weatherlink.com 1.10,2013-02-07 09:04:00,
2013-02-07 01:19:00,34.1,33.0,30.06,NE,41,0.0,0.0,96,0.00,,,0.00,weatherlink.com 1.10,2013-02-07 09:19:00,
2013-02-07 01:34:00,33.9,33.0,30.05,NE,41,0.0,0.0,96,0.00,,,0.00,weatherlink.com 1.10,2013-02-07 09:34:00,
2013-02-07 01:49:00,33.9,33.0,30.05,NE,47,0.0,0.0,96,0.00,,,0.00,weatherlink.com 1.10,2013-02-07 09:49:00,
2013-02-07 02:04:00,33.8,33.0,30.05,NE,47,0.0,0.0,96,0.00,,,0.00,weatherlink.com 1.10,2013-02-07 10:04:00,
2013-02-07 02:19:00,34.1,33.0,30.05,NE,47,0.0,0.0,96,0.00,,,0.00,weatherlink.com 1.10,2013-02-07 10:19:00,
2013-02-07 02:34:00,33.8,33.0,30.04,NE,47,0.0,0.0,96,0.00,,,0.00,weatherlink.com 1.10,2013-02-07 10:34:00,
2013-02-07 02:49:00,33.8,33.0,30.04,NE,47,0.0,0.0,96,0.00,,,0.00,weatherlink.com 1.10,2013-02-07 10:49:00,
2013-02-07 03:04:00,33.7,33.0,30.03,NE,47,0.0,0.0,96,0.00,,,0.00,weatherlink.com 1.10,2013-02-07 11:04:00,
2013-02-07 03:19:00,33.7,33.0,30.03,NE,47,0.0,0.0,96,0.00,,,0.00,weatherlink.com 1.10,2013-02-07 11:19:00,
2013-02-07 03:34:00,33.6,33.0,30.03,NE,47,0.0,0.0,96,0.00,,,0.00,weatherlink.com 1.10,2013-02-07 11:34:00,
2013-02-07 03:49:00,33.8,33.0,30.02,NE,47,0.0,0.0,96,0.00,,,0.00,weatherlink.com 1.10,2013-02-07 11:49:00,
2013-02-07 04:05:00,33.8,33.0,30.02,NE,47,0.0,0.0,96,0.00,,,0.00,weatherlink.com 1.10,2013-02-07 12:05:00,
2013-02-07 04:19:00,33.7,33.0,30.02,NE,47,0.0,0.0,96,0.00,,,0.00,weatherlink.com 1.10,2013-02-07 12:19:00,
2013-02-07 04:34:00,33.8,33.0,30.03,NE,47,0.0,0.0,96,0.00,,,0.00,weatherlink.com 1.10,2013-02-07 12:34:00,
2013-02-07 04:49:00,33.7,33.0,30.03,NE,47,0.0,0.0,96,0.00,,,0.00,weatherlink.com 1.10,2013-02-07 12:49:00,
2013-02-07 05:04:00,33.8,33.0,30.04,NE,47,0.0,0.0,96,0.00,,,0.00,weatherlink.com 1.10,2013-02-07 13:04:00,
2013-02-07 05:20:00,34.0,33.0,30.05,NE,47,0.0,0.0,96,0.00,,,0.00,weatherlink.com 1.10,2013-02-07 13:20:00,
2013-02-07 05:35:00,33.9,33.0,30.05,ENE,74,0.0,0.0,96,0.00,,,0.00,weatherlink.com 1.10,2013-02-07 13:35:00,
2013-02-07 05:50:00,33.6,33.0,30.05,ENE,72,0.0,0.0,96,0.00,,,0.00,weatherlink.com 1.10,2013-02-07 13:50:00,
2013-02-07 06:05:00,33.6,33.0,30.06,ENE,72,0.0,0.0,96,0.00,,,0.00,weatherlink.com 1.10,2013-02-07 14:05:00,
2013-02-07 06:20:00,33.9,33.0,30.06,ENE,74,0.0,0.0,97,0.00,,,0.00,weatherlink.com 1.10,2013-02-07 14:20:00,
2013-02-07 06:35:00,33.8,33.0,30.06,ENE,72,0.0,0.0,96,0.00,,,0.00,weatherlink.com 1.10,2013-02-07 14:35:00,
2013-02-07 06:50:00,33.7,33.0,30.07,ENE,72,0.0,0.0,96,0.00,,,0.00,weatherlink.com 1.10,2013-02-07 14:50:00,
2013-02-07 07:05:00,33.6,33.0,30.07,ENE,72,0.0,0.0,96,0.00,,,0.00,weatherlink.com 1.10,2013-02-07 15:05:00,
2013-02-07 07:20:00,33.6,33.0,30.07,ENE,72,0.0,0.0,96,0.00,,,0.00,weatherlink.com 1.10,2013-02-07 15:20:00,
2013-02-07 07:35:00,33.7,33.0,30.08,ENE,70,0.0,0.0,96,0.00,,,0.00,weatherlink.com 1.10,2013-02-07 15:35:00,
2013-02-07 07:50:00,33.4,32.0,30.08,NE,56,0.0,0.0,96,0.00,,,0.00,weatherlink.com 1.10,2013-02-07 15:50:00,
2013-02-07 08:05:00,33.7,33.0,30.09,ENE,57,0.0,0.0,97,0.00,,,0.00,weatherlink.com 1.10,2013-02-07 16:05:00,
2013-02-07 08:20:00,33.9,33.0,30.09,NE,56,0.0,0.0,97,0.00,,,0.00,weatherlink.com 1.10,2013-02-07 16:20:00,
2013-02-07 08:35:00,34.1,33.0,30.09,ENE,58,0.0,0.0,97,0.00,,,0.00,weatherlink.com 1.10,2013-02-07 16:35:00,
2013-02-07 08:50:00,34.0,33.0,30.10,ENE,58,0.0,0.0,96,0.00,,,0.00,weatherlink.com 1.10,2013-02-07 16:50:00,
2013-02-07 09:05:00,33.9,33.0,30.10,NE,53,0.0,0.0,96,0.00,,,0.00,weatherlink.com 1.10,2013-02-07 17:05:00,
2013-02-07 09:20:00,33.8,33.0,30.10,East,91,0.0,0.0,96,0.00,,,0.00,weatherlink.com 1.10,2013-02-07 17:20:00,
2013-02-07 09:35:00,34.1,33.0,30.10,NE,49,0.0,0.0,97,0.00,,,0.00,weatherlink.com 1.10,2013-02-07 17:35:00,
2013-02-07 09:50:00,34.6,34.0,30.10,NE,49,0.0,0.0,97,0.00,,,0.00,weatherlink.com 1.10,2013-02-07 17:50:00,
2013-02-07 10:05:00,35.0,34.0,30.10,ENE,68,0.0,0.0,97,0.00,,,0.00,weatherlink.com 1.10,2013-02-07 18:05:00,
2013-02-07 10:20:00,35.4,35.0,30.10,NE,53,0.0,0.0,97,0.00,,,0.00,weatherlink.com 1.10,2013-02-07 18:20:00,
2013-02-07 10:35:00,36.3,36.0,30.11,NE,53,0.0,0.0,97,0.00,,,0.00,weatherlink.com 1.10,2013-02-07 18:35:00,
2013-02-07 10:50:00,37.8,37.0,30.11,East,79,0.0,0.0,97,0.00,,,0.00,weatherlink.com 1.10,2013-02-07 18:50:00,
2013-02-07 11:05:00,40.4,36.0,30.11,NNE,33,0.0,0.0,85,0.00,,,0.00,weatherlink.com 1.10,2013-02-07 19:05:00,
2013-02-07 11:20:00,40.7,34.0,30.11,NE,44,0.0,0.0,77,0.00,,,0.00,weatherlink.com 1.10,2013-02-07 19:20:00,
2013-02-07 11:35:00,40.7,33.0,30.11,NE,50,0.0,0.0,74,0.00,,,0.00,weatherlink.com 1.10,2013-02-07 19:35:00,
2013-02-07 11:50:00,40.8,33.0,30.11,NE,51,0.0,0.0,73,0.00,,,0.00,weatherlink.com 1.10,2013-02-07 19:50:00,
2013-02-07 12:05:00,41.0,32.0,30.11,NE,39,0.0,0.0,71,0.00,,,0.00,weatherlink.com 1.10,2013-02-07 20:05:00,
2013-02-07 12:20:00,41.8,32.0,30.12,NE,40,0.0,0.0,67,0.00,,,0.00,weatherlink.com 1.10,2013-02-07 20:20:00,
2013-02-07 12:35:00,42.2,31.0,30.11,NE,36,0.0,0.0,66,0.00,,,0.00,weatherlink.com 1.10,2013-02-07 20:35:00,
2013-02-07 12:50:00,41.9,30.0,30.11,NE,48,0.0,0.0,64,0.00,,,0.00,weatherlink.com 1.10,2013-02-07 20:50:00,
2013-02-07 13:05:00,41.7,31.0,30.11,NE,36,0.0,0.0,65,0.00,,,0.00,weatherlink.com 1.10,2013-02-07 21:05:00,
2013-02-07 13:20:00,41.6,31.0,30.11,NE,56,0.0,0.0,66,0.00,,,0.00,weatherlink.com 1.10,2013-02-07 21:20:00,
2013-02-07 13:35:00,41.5,31.0,30.11,ENE,61,0.0,0.0,66,0.00,,,0.00,weatherlink.com 1.10,2013-02-07 21:35:00,
2013-02-07 13:50:00,41.2,29.0,30.11,NE,56,0.0,0.0,63,0.00,,,0.00,weatherlink.com 1.10,2013-02-07 21:50:00,
2013-02-07 14:05:00,41.2,29.0,30.11,ENE,61,0.0,0.0,61,0.00,,,0.00,weatherlink.com 1.10,2013-02-07 22:05:00,
2013-02-07 14:20:00,41.2,29.0,30.11,NE,38,0.0,0.0,63,0.00,,,0.00,weatherlink.com 1.10,2013-02-07 22:20:00,
2013-02-07 14:35:00,41.2,29.0,30.11,ENE,68,0.0,0.0,62,0.00,,,0.00,weatherlink.com 1.10,2013-02-07 22:35:00,
2013-02-07 14:50:00,41.1,28.0,30.11,NE,36,0.0,0.0,60,0.00,,,0.00,weatherlink.com 1.10,2013-02-07 22:50:00,
2013-02-07 15:05:00,41.4,29.0,30.12,NE,43,0.0,0.0,62,0.00,,,0.00,weatherlink.com 1.10,2013-02-07 23:05:00,
2013-02-07 15:20:00,41.6,28.0,30.11,NNE,33,0.0,0.0,60,0.00,,,0.00,weatherlink.com 1.10,2013-02-07 23:20:00,
2013-02-07 15:35:00,41.0,30.0,30.12,ENE,58,0.0,0.0,64,0.00,,,0.00,weatherlink.com 1.10,2013-02-07 23:35:00,
2013-02-07 15:50:00,40.3,30.0,30.12,NE,38,0.0,0.0,67,0.00,,,0.00,weatherlink.com 1.10,2013-02-07 23:50:00,
2013-02-07 16:05:00,39.4,30.0,30.13,NE,38,0.0,0.0,70,0.00,,,0.00,weatherlink.com 1.10,2013-02-08 00:05:00,
2013-02-07 16:20:00,38.8,31.0,30.13,NE,35,0.0,0.0,73,0.00,,,0.00,weatherlink.com 1.10,2013-02-08 00:20:00,
2013-02-07 16:35:00,37.8,30.0,30.14,NE,36,0.0,0.0,74,0.00,,,0.00,weatherlink.com 1.10,2013-02-08 00:35:00,
2013-02-07 16:51:00,37.3,30.0,30.15,NE,37,0.0,0.0,76,0.00,,,0.00,weatherlink.com 1.10,2013-02-08 00:51:00,
2013-02-07 17:06:00,36.6,30.0,30.16,NE,37,0.0,0.0,78,0.00,,,0.00,weatherlink.com 1.10,2013-02-08 01:06:00,
2013-02-07 17:21:00,35.9,30.0,30.16,NE,37,0.0,0.0,80,0.00,,,0.00,weatherlink.com 1.10,2013-02-08 01:21:00,
2013-02-07 17:36:00,35.1,30.0,30.17,NE,37,0.0,0.0,82,0.00,,,0.00,weatherlink.com 1.10,2013-02-08 01:36:00,
2013-02-07 17:51:00,34.2,30.0,30.18,NE,38,0.0,0.0,84,0.00,,,0.00,weatherlink.com 1.10,2013-02-08 01:51:00,
2013-02-07 18:06:00,33.8,30.0,30.18,NE,37,0.0,0.0,84,0.00,,,0.00,weatherlink.com 1.10,2013-02-08 02:06:00,
2013-02-07 18:21:00,33.1,29.0,30.18,NE,37,0.0,0.0,85,0.00,,,0.00,weatherlink.com 1.10,2013-02-08 02:21:00,
2013-02-07 18:36:00,32.0,29.0,30.19,NE,38,0.0,0.0,87,0.00,,,0.00,weatherlink.com 1.10,2013-02-08 02:36:00,
2013-02-07 18:51:00,31.4,28.0,30.19,NE,39,0.0,0.0,87,0.00,,,0.00,weatherlink.com 1.10,2013-02-08 02:51:00,
2013-02-07 19:06:00,31.0,28.0,30.20,NE,39,0.0,0.0,88,0.00,,,0.00,weatherlink.com 1.10,2013-02-08 03:06:00,
2013-02-07 19:21:00,30.7,28.0,30.20,ENE,72,0.0,0.0,89,0.00,,,0.00,weatherlink.com 1.10,2013-02-08 03:21:00,
2013-02-07 19:36:00,30.2,27.0,30.20,NE,53,0.0,0.0,89,0.00,,,0.00,weatherlink.com 1.10,2013-02-08 03:36:00,
2013-02-07 19:51:00,29.8,27.0,30.21,NE,53,0.0,0.0,89,0.00,,,0.00,weatherlink.com 1.10,2013-02-08 03:51:00,
2013-02-07 20:06:00,29.7,27.0,30.22,NE,53,0.0,0.0,90,0.00,,,0.00,weatherlink.com 1.10,2013-02-08 04:06:00,
2013-02-07 20:21:00,29.6,27.0,30.23,NE,53,0.0,0.0,90,0.00,,,0.00,weatherlink.com 1.10,2013-02-08 04:21:00,
2013-02-07 20:36:00,29.3,27.0,30.23,NE,53,0.0,0.0,91,0.00,,,0.00,weatherlink.com 1.10,2013-02-08 04:36:00,
2013-02-07 20:51:00,29.4,27.0,30.23,NE,53,0.0,0.0,91,0.00,,,0.00,weatherlink.com 1.10,2013-02-08 04:51:00,
2013-02-07 21:06:00,29.1,27.0,30.24,NE,53,0.0,0.0,91,0.00,,,0.00,weatherlink.com 1.10,2013-02-08 05:06:00,
2013-02-07 21:21:00,29.0,27.0,30.24,NE,53,0.0,0.0,91,0.00,,,0.00,weatherlink.com 1.10,2013-02-08 05:21:00,
2013-02-07 21:36:00,29.2,27.0,30.25,NE,53,0.0,0.0,92,0.00,,,0.00,weatherlink.com 1.10,2013-02-08 05:36:00,
2013-02-07 21:51:00,29.1,27.0,30.25,NE,53,0.0,0.0,91,0.00,,,0.00,weatherlink.com 1.10,2013-02-08 05:51:00,
2013-02-07 22:06:00,28.8,27.0,30.26,NE,53,0.0,0.0,91,0.00,,,0.00,weatherlink.com 1.10,2013-02-08 06:06:00,
2013-02-07 22:21:00,28.7,27.0,30.26,NE,53,0.0,0.0,92,0.00,,,0.00,weatherlink.com 1.10,2013-02-08 06:21:00,
2013-02-07 22:36:00,28.6,27.0,30.26,NE,53,0.0,0.0,92,0.00,,,0.00,weatherlink.com 1.10,2013-02-08 06:36:00,
2013-02-07 22:51:00,28.4,26.0,30.27,NE,53,0.0,0.0,92,0.00,,,0.00,weatherlink.com 1.10,2013-02-08 06:51:00,
2013-02-07 23:06:00,28.0,26.0,30.27,NE,53,0.0,0.0,92,0.00,,,0.00,weatherlink.com 1.10,2013-02-08 07:06:00,
2013-02-07 23:21:00,28.0,26.0,30.27,NE,53,0.0,0.0,92,0.00,,,0.00,weatherlink.com 1.10,2013-02-08 07:21:00,
2013-02-07 23:36:00,27.7,26.0,30.27,NE,53,0.0,0.0,92,0.00,,,0.00,weatherlink.com 1.10,2013-02-08 07:36:00,
2013-02-07 23:51:00,27.3,25.0,30.28,NE,52,0.0,0.0,91,0.00,,,0.00,weatherlink.com 1.10,2013-02-08 07:51:00,